www.pogodaiklimat.ru

Погода и климат >> Архив погоды >> Австралия >> Новый Южный Уэльс >> Перпендикуляр Пойнт


ПОГОДА в Перпендикуляр Пойнт

  • Прогноз погоды в Перпендикуляр Пойнт
  • Монитор погоды в Перпендикуляр Пойнт

АРХИВ ПОГОДЫ в Перпендикуляр Пойнт

Время (UTC), дата Ветер
(напр.,м/с)
 
Видим.   Явления Облачность Т
(С)
Тd
(С)
f
(%)
Тe
(С)
Тes
(С)
Комфортность P
(гПа)
Po
(гПа)
Тmin
(С)
Tmax
(С)
R
(мм)
R24
(мм)
S
(см)
22 15.04 СЗ 1 н/о н/о +16.8 +14.8 88 +18 +18 1026.0 1016.0
23 15.04 З 2 н/о {туман} н/о +18.1 +14.4 79 +19 +19 1026.3 1016.3
01 16.04 Ю 2 н/о н/о +20.1 +15.7 76 +23 +23 комфорт 1025.9 1015.9
02 16.04 ЮВ 2 н/о н/о +21.0 +16.8 77 +25 +25 комфорт 1025.2 1015.2 +14.9
04 16.04 ЮВ 3 н/о н/о +21.3 +15.8 71 +25 +25 комфорт 1024.3 1014.3
05 16.04 ЮВ 3 н/о н/о +21.7 +16.2 71 +25 +25 комфорт 1024.1 1014.1
07 16.04 В 3 н/о н/о +20.1 +15.7 76 +23 +23 комфорт 1024.2 1014.2
08 16.04 СВ 3 н/о н/о +19.8 +15.7 77 +22 +22 комфорт 1024.5 1014.5
10 16.04 СВ 3 н/о н/о +19.2 +15.1 77 +21 +21 комфорт 1025.4 1015.4
11 16.04 СВ 3 н/о н/о +18.4 +14.7 79 +19 +19 1025.8 1015.8
13 16.04 С 2 н/о н/о +17.3 +14.4 83 +18 +18 1025.4 1015.4
14 16.04 СЗ 2 н/о н/о +17.1 +15.6 91 +17 +17 1025.2 1015.2 +22.6
16 16.04 СЗ 2 н/о н/о +16.4 +14.8 90 +17 +17 1024.8 1014.8
17 16.04 СЗ 1 н/о н/о +16.0 +14.4 90 +17 +17 1024.6 1014.6
19 16.04 СЗ 2 н/о н/о +15.5 +13.5 88 +16 +16 1024.7 1014.7
20 16.04 СЗ 2 н/о н/о +15.4 +13.6 89 +15 +15 1025.2 1015.2
22 16.04 З 2 н/о н/о +16.9 +14.2 84 +17 +17 1025.9 1015.9
23 16.04 З 1 н/о н/о +18.5 +14.4 77 +20 +20 1026.0 1016.0
01 17.04 СВ 3 н/о н/о +23.0 +16.5 67 +28 +28 душно 1025.8 1015.8
02 17.04 СВ 4 н/о н/о +21.9 +16.0 69 +26 +26 душно 1025.0 1015.0 +15.3
04 17.04 СВ 5 н/о н/о +21.9 +16.6 72 +26 +26 душно 1023.7 1013.7
05 17.04 СВ 5 н/о н/о +21.9 +16.8 73 +26 +26 душно 1023.7 1013.7
07 17.04 СВ 5 н/о н/о +20.7 +16.7 78 +24 +24 комфорт 1023.2 1013.2
08 17.04 СВ 5 н/о н/о +19.7 +16.2 80 +22 +22 комфорт 1023.4 1013.4
10 17.04 С 5 н/о н/о +19.7 +16.5 82 +22 +22 комфорт 1024.3 1014.3
11 17.04 С 5 н/о н/о +19.3 +16.9 86 +21 +21 комфорт 1024.9 1014.9
13 17.04 С 4 н/о н/о +18.5 +16.1 86 +19 +19 1024.6 1014.6
14 17.04 С 5 н/о н/о +18.7 +15.4 81 +19 +19 1024.0 1014.0 +23.7
16 17.04 С 3 н/о н/о +18.1 +14.6 80 +18 +18 1023.2 1013.2
17 17.04 СЗ 2 н/о н/о +16.6 +14.8 89 +17 +17 1023.0 1013.0
19 17.04 С 3 н/о н/о +16.1 +13.4 84 +16 +16 1022.8 1012.8
20 17.04 СЗ 3 н/о н/о +16.0 +14.0 88 +15 +15 1023.0 1013.0
22 17.04 СЗ 3 н/о н/о +19.1 +14.6 75 +21 +21 комфорт 1024.0 1014.0
23 17.04 СЗ 3 н/о н/о +20.5 +14.6 69 +23 +23 комфорт 1024.6 1014.6
01 18.04 С 4 н/о н/о +24.1 +14.2 54 +27 +27 жарко 1024.6 1014.6
02 18.04 С 3 н/о н/о +24.8 +14.6 53 +27 +27 жарко 1024.3 1014.3 +15.6
04 18.04 Ю 6 н/о н/о +20.6 +16.4 77 +24 +24 комфорт 1023.8 1013.8
05 18.04 Ю 6 н/о н/о +20.6 +17.4 82 +24 +24 комфорт 1024.1 1014.1
07 18.04 Ю 5 н/о н/о +19.4 +16.6 84 +21 +21 комфорт 1025.0 1015.0
08 18.04 Ю 7 н/о н/о +19.2 +16.1 82 +20 +20 1025.8 1015.8
10 18.04 Ю 6 н/о н/о +19.4 +16.4 83 +21 +21 комфорт 1027.2 1017.2
11 18.04 Ю 6 н/о н/о +19.4 +16.4 83 +21 +21 комфорт 1028.0 1018.0
13 18.04 Ю 5 н/о н/о +19.3 +16.3 83 +21 +21 комфорт 1028.6 1018.6
14 18.04 ЮЗ 4 н/о н/о +18.3 +15.9 86 +19 +19 1028.5 1018.5 +25.7
16 18.04 ЮЗ 4 н/о н/о +17.6 +16.1 91 +17 +17 1028.1 1018.1
17 18.04 ЮЗ 4 н/о {осадки} н/о +17.0 +15.2 89 +16 +16 1027.1 1017.1 0.2
19 18.04 ЮЗ 4 н/о н/о +17.4 +15.4 88 +17 +17 1027.8 1017.8
20 18.04 ЮЗ 4 н/о н/о +17.1 +14.7 86 +17 +17 1028.2 1018.2
22 18.04 ЮЗ 4 н/о н/о +17.6 +14.5 82 +17 +17 1029.2 1019.2
23 18.04 ЮЗ 4 н/о н/о +17.8 +14.5 81 +18 +18 1029.6 1019.6
01 19.04 З 3 н/о н/о +19.5 +15.0 75 +22 +22 комфорт 1029.0 1019.0
02 19.04 ЮЗ 1 н/о н/о +19.7 +15.1 75 +23 +23 комфорт 1028.2 1018.2 +16.9
04 19.04 ЮВ 3 н/о н/о +20.1 +15.5 75 +23 +23 комфорт 1026.2 1016.2
05 19.04 ЮВ 3 н/о н/о +20.2 +16.4 79 +23 +23 комфорт 1026.0 1016.0
07 19.04 В 2 н/о н/о +19.3 +16.9 86 +22 +22 комфорт 1025.7 1015.7
08 19.04 СВ 3 н/о н/о +19.2 +17.2 88 +21 +21 комфорт 1025.9 1015.9
10 19.04 СВ 3 н/о н/о +19.1 +17.6 91 +21 +21 комфорт 1026.5 1016.5
11 19.04 С 2 н/о н/о +18.8 +17.5 92 +21 +21 комфорт 1027.0 1017.0
13 19.04 СВ 3 н/о н/о +18.5 +17.3 93 +20 +20 1027.0 1017.0
14 19.04 С 3 н/о н/о +18.2 +15.5 84 +19 +19 1026.6 1016.6 +21.1
16 19.04 СЗ 2 н/о н/о +17.9 +16.8 93 +19 +19 1026.1 1016.1
17 19.04 З 1 н/о н/о +18.1 +17.3 95 +20 +20 1025.9 1015.9
19 19.04 З 1 н/о н/о +17.4 +16.6 95 +18 +18 1025.9 1015.9
20 19.04 штиль 0 н/о н/о +17.4 +16.6 95 +17 +17 1026.1 1016.1
22 19.04 СЗ 1 н/о н/о +19.2 +18.4 95 +23 +23 комфорт 1026.8 1016.8
23 19.04 ЮВ 1 н/о н/о +19.9 +17.7 87 +24 +24 комфорт 1027.0 1017.0
01 20.04 СВ 3 н/о н/о +21.6 +18.2 81 +26 +26 душно 1026.4 1016.4
02 20.04 СВ 4 н/о н/о +22.7 +18.5 77 +28 +28 душно 1025.6 1015.6 +17.3
04 20.04 СВ 5 н/о н/о +22.7 +18.7 78 +28 +28 душно 1024.1 1014.1
05 20.04 СВ 6 н/о н/о +22.4 +19.0 81 +28 +28 душно 1023.8 1013.8
07 20.04 СВ 5 н/о н/о +21.2 +18.8 86 +26 +26 душно 1023.5 1013.5
08 20.04 СВ 5 н/о н/о +20.8 +18.9 89 +25 +25 комфорт 1023.7 1013.7
10 20.04 СВ 5 н/о н/о +20.4 +18.9 91 +24 +24 комфорт 1024.6 1014.6
11 20.04 С 5 н/о н/о +20.2 +18.7 91 +24 +24 комфорт 1024.7 1014.7
13 20.04 С 4 н/о н/о +19.7 +18.7 94 +23 +23 комфорт 1024.7 1014.7
14 20.04 С 3 н/о в посл. час дождь {туман} н/о +19.2 +18.4 95 +21 +21 комфорт 1024.2 1014.2 +23.5
16 20.04 С 3 н/о н/о +18.9 +17.7 93 +21 +21 комфорт 1023.2 1013.2
17 20.04 С 3 н/о {туман} н/о +19.0 +17.8 93 +21 +21 комфорт 1022.9 1012.9
19 20.04 С 3 н/о н/о +18.8 +18.0 95 +20 +20 1023.3 1013.3
20 20.04 С 3 н/о н/о +18.6 +17.6 94 +20 +20 1023.5 1013.5
22 20.04 С 2 н/о н/о +20.8 +19.5 92 +26 +26 душно 1024.7 1014.7
23 20.04 СВ 5 н/о {туман} н/о +22.0 +18.4 80 +27 +27 душно 1024.6 1014.6
01 21.04 С 6 н/о н/о +23.5 +16.8 66 +27 +27 душно 1024.3 1014.3
02 21.04 СВ 7 н/о н/о +23.8 +17.8 69 +28 +28 душно 1023.1 1013.1 +18.4
04 21.04 СВ 7 н/о н/о +22.7 +18.0 75 +28 +28 душно 1021.5 1011.6
05 21.04 СВ 7 н/о н/о +22.8 +17.5 72 +28 +28 душно 1021.3 1011.4
07 21.04 СВ 6 н/о н/о +21.3 +18.3 83 +26 +26 душно 1021.1 1011.2
08 21.04 С 6 н/о н/о +20.8 +18.0 84 +25 +25 комфорт 1021.3 1011.4
10 21.04 С 6 н/о н/о +20.6 +18.7 89 +24 +24 комфорт 1021.6 1011.7
11 21.04 С 7 н/о н/о +20.4 +18.9 91 +24 +24 комфорт 1021.7 1011.8
13 21.04 С 6 н/о н/о +20.1 +16.9 82 +23 +23 комфорт 1021.3 1011.4
14 21.04 С 5 н/о н/о +20.0 +17.0 83 +23 +23 комфорт 1021.4 1011.5 +24.7
16 21.04 С 3 н/о н/о +19.4 +17.5 89 +22 +22 комфорт 1021.1 1011.2
17 21.04 С 4 н/о н/о +19.4 +17.7 90 +22 +22 комфорт 1020.7 1010.8
19 21.04 С 6 н/о н/о +19.5 +17.5 88 +21 +21 комфорт 1020.8 1010.9
20 21.04 С 5 н/о н/о +19.3 +17.3 88 +21 +21 комфорт 1021.1 1011.2
22 21.04 С 5 н/о н/о +20.3 +17.1 82 +23 +23 комфорт 1022.7 1012.7
23 21.04 С 6 н/о н/о +21.6 +15.9 70 +25 +25 комфорт 1022.8 1012.8
01 22.04 С 7 н/о н/о +23.7 +16.7 65 +27 +27 жарко 1022.6 1012.6
02 22.04 С 6 н/о н/о +24.3 +17.8 67 +28 +28 душно 1022.1 1012.1 +19.0
04 22.04 СВ 6 н/о н/о +23.2 +17.2 69 +28 +28 душно 1021.7 1011.8
05 22.04 СВ 5 н/о н/о +23.2 +16.3 65 +28 +28 душно 1021.9 1012.0
07 22.04 С 1 н/о н/о +21.4 +16.6 74 +25 +25 комфорт 1023.4 1013.4
08 22.04 ЮЗ 1 н/о н/о +20.3 +17.5 84 +25 +25 комфорт 1024.2 1014.2
10 22.04 Ю 3 н/о н/о +20.7 +18.8 89 +25 +25 комфорт 1025.5 1015.5
11 22.04 Ю 2 н/о н/о +20.8 +18.7 88 +26 +26 душно 1025.9 1015.9
13 22.04 ЮЗ 2 н/о н/о +20.2 +18.7 91 +24 +24 комфорт 1026.3 1016.3
14 22.04 ЮЗ 4 н/о н/о +19.2 +17.7 91 +21 +21 комфорт 1026.7 1016.7 +24.7
16 22.04 ЮЗ 4 н/о н/о +18.5 +17.0 91 +19 +19 1026.3 1016.3
17 22.04 ЮЗ 4 н/о н/о +18.1 +17.0 93 +18 +18 1026.1 1016.1
19 22.04 ЮЗ 3 н/о н/о +17.6 +16.1 91 +18 +18 1026.7 1016.7
20 22.04 ЮЗ 4 н/о н/о +18.1 +16.6 91 +18 +18 1026.6 1016.6
22 22.04 ЮЗ 3 н/о н/о +18.4 +16.4 88 +19 +19 1027.6 1017.6
23 22.04 ЮЗ 3 н/о н/о +19.3 +16.5 84 +21 +21 комфорт 1028.2 1018.2

 

Местоположение метеостанции Перпендикуляр Пойнт (Новый Южный Уэльс, Австралия): широта -35.08 долгота 150.80 высота над уровнем моря 84 м.

В архиве по умолчанию представлена погода в Перпендикуляр Пойнт за последнюю неделю. Архивные данные за месяц целиком и за предыдущие месяцы, начиная с января 2011 года, Вы можете получить, выбрав интересующий диапазон дат из раскрывающегося списка и нажав кнопку "Ввод!".


*Определитесь, кто Вы:
робот инопланетянин человек

Внимание! Время в таблицах - всемирное. Для получения местного времени необходимо прибавить поправку, которая равна 10 ч.

Смотрите также архив погоды в соседних городах и на ближайших метеорологических станциях:

Погода в Нора Хилл (Новый Южный Уэльс, Австралия) (29 км)
Погода в Улладалле (Новый Южный Уэльс, Австралия) (42 км)
Погода в Киаме (Новый Южный Уэльс, Австралия) (48 км)
Погода в Вуллонгонге (Новый Южный Уэльс, Австралия) (57 км)
Погода в Нерриге (Новый Южный Уэльс, Австралия) (66 км)
Погода в Мосс Вейл (Новый Южный Уэльс, Австралия) (71 км)
Погода в Белламби (Новый Южный Уэльс, Австралия) (79 км)
Погода в Брейдвуде (Новый Южный Уэльс, Австралия) (100 км)
Погода в Гоулберне (Новый Южный Уэльс, Австралия) (102 км)
Погода в Моруе (Новый Южный Уэльс, Австралия) (109 км)

Пояснения к столбцам:

Ветер - указаны скорость ветра в м/с - средняя за 10 мин, порывы в срок и между сроками (в фигурных скобках) и направление, откуда дует ветер: С - северный, СВ - северо-восточный, В - восточный, ЮВ - юго-восточный, Ю - южный, ЮЗ - юго-западный, З - западный, СЗ - северо-западный.
Видимость - горизонтальная дальность видимости в метрах или километрах. При видимости от 1 до 10 км при отсутствии осадков обычно наблюдается дымка, при ухудшении видимости до 1 км и менее - туман. В сухую погоду видимость может ухудшаться дымом, пылью или мглою.
Явления - указаны атмосферные явления, наблюдавшиеся в срок или в последний час перед сроком; фигурными скобками обозначены явления, наблюдавшиеся между сроками (за 1-3 часа до срока); квадратными скобками обозначены град или гололедные отложения с указанием их диаметра в мм.
Облачность - указаны через наклонную черту общая и нижняя облачность в баллах и высота нижней границы облаков в метрах; квадратными скобками обозначены формы облаков: Ci - перистые, Cs - перисто-слоистые, Cc - перисто-кучевые, Ac - высококучевые, As - высокослоистые, Sc - слоисто-кучевые, Ns - слоисто-дождевые, Cu - кучевые, Cb - кучево-дождевые. Подробнее классификацию облаков см. в Атласе облаков (PDF).
T - Температура воздуха - температура, измеренная на высоте 2 м над землей.
Td - Температура точки росы - температура, при понижении до которой содержащийся в воздухе водяной пар достигнет насыщения.
f - Относительная влажность воздуха - влажноcть воздуха, измеренная на высоте 2 м над землей.
Te - Эффективная температура - температура, которую ощущает одетый по сезону человек в тени. Характеристика душности погоды. При расчете учитывается влияние влажности воздуха и скорости ветра на теплоощущения человека.
Tes - Эффективная температура на солнце - температура, которую ощущает человек, с поправкой на солнечный нагрев. Характеристика знойности погоды. Зависит от высоты солнца над горизонтом, облачности и скорости ветра. Ночью, в пасмурную погоду, а также при ветре 12 м/с и более поправка равна нулю.
P - Атмосферное давление - приведенное к уровню моря атмосферное давление.
Po - Атмосферное давление - измеренное на уровне метеостанции атмосферное давление.
Tmin - Минимальная температура - минимум температуры воздуха на высоте 2 м над землей.
Tmax - Максимальная температура - максимум температуры воздуха на высоте 2 м над землей.
R - Количество осадков - Количество выпавших осадков за период времени, мм. При наведении курсора мыши на число - период времени, за который выпало указанное количество осадков.
R24 - Количество осадков - Количество выпавших осадков за 24 часа, мм.
S - Снежный покров - Высота снежного покрова, см. При наведении курсора мыши на число - состояние снежного покрова и степень покрытия местности в баллах.